Location: Unspecified
(0.0000°N, 0.0000°E)
Time: 06:28:16
(UTC+00:00)

Courier 1B - Pass Details

Date: 25 September 2023
Orbit: 962 x 1208 km, 28.3° (Epoch: 06 December)

Event Time Altitude Azimuth Distance (km) Brightness Sun altitude
Rises 11:37:23 0° 265° (W) 3,956 10.6 86.3°
Reaches altitude 10° 11:40:32 10° 276° (W) 3,032 10.2 87.1°
Maximum altitude 11:46:54 29° 333° (NNW) 1,997 9.6 88.5°
Drops below altitude 10° 11:53:28 10° 31° (NNE) 3,127 10.3 89.0°
Sets 11:56:48 0° 42° (NE) 4,098 10.7 88.5°
